| time (UTC) | temp F | wind direction | speed MPH | gust MPH | rain 1hr in | rain 24hr in | rain mn in | humidity % | barometer mb |
| 20260509223348 | 58 | 178 | 2.0 | 9.0 | 0.00 | 0.02 | 0.02 | 79 | 1004.6 |
| 20260509222323 | 58 | 124 | 3.0 | 9.0 | 0.00 | 0.02 | 0.02 | 79 | 1004.6 |
| 20260509221301 | 58 | 148 | 3.0 | 9.0 | 0.00 | 0.02 | 0.02 | 80 | 1004.4 |
| 20260509220316 | 57 | 152 | 2.0 | 7.0 | 0.00 | 0.02 | 0.02 | 82 | 1004.4 |
| 20260509214122 | 56 | 137 | 3.0 | 8.0 | 0.00 | 0.02 | 0.02 | 85 | 1004.7 |
| 20260509213142 | 56 | 107 | 3.0 | 9.0 | 0.00 | 0.02 | 0.02 | 85 | 1004.6 |
| 20260509205849 | 55 | 135 | 5.0 | 11.0 | 0.00 | 0.02 | 0.02 | 87 | 1005.0 |
| 20260509204850 | 54 | 114 | 4.0 | 11.0 | 0.00 | 0.02 | 0.02 | 87 | 1005.0 |
| 20260509203842 | 54 | 72 | 4.0 | 10.0 | 0.00 | 0.02 | 0.02 | 87 | 1005.2 |
| 20260509202852 | 54 | 107 | 3.0 | 10.0 | 0.00 | 0.02 | 0.02 | 87 | 1005.3 |
| 20260509201838 | 54 | 117 | 4.0 | 10.0 | 0.00 | 0.02 | 0.02 | 87 | 1005.3 |
| 20260509200856 | 54 | 112 | 3.0 | 9.0 | 0.00 | 0.02 | 0.02 | 88 | 1005.4 |
| 20260509195907 | 54 | 127 | 4.0 | 8.0 | 0.00 | 0.02 | 0.02 | 88 | 1005.4 |
| 20260509194845 | 53 | 105 | 4.0 | 11.0 | 0.00 | 0.02 | 0.02 | 88 | 1005.5 |
| 20260509193816 | 53 | 110 | 5.0 | 11.0 | 0.00 | 0.02 | 0.02 | 88 | 1005.7 |
| 20260509192741 | 52 | 115 | 5.0 | 10.0 | 0.00 | 0.02 | 0.02 | 88 | 1005.8 |
| 20260509191720 | 52 | 117 | 3.0 | 10.0 | 0.00 | 0.02 | 0.02 | 89 | 1006.0 |
| 20260509190716 | 52 | 157 | 4.0 | 9.0 | 0.00 | 0.02 | 0.02 | 90 | 1006.0 |
| 20260509185706 | 52 | 128 | 4.0 | 11.0 | 0.00 | 0.02 | 0.02 | 91 | 1006.2 |
| 20260509184715 | 51 | 110 | 5.0 | 11.0 | 0.00 | 0.02 | 0.02 | 90 | 1006.3 |
| 20260509183644 | 51 | 94 | 3.0 | 10.0 | 0.00 | 0.02 | 0.02 | 91 | 1006.4 |
| 20260509182612 | 51 | 108 | 4.0 | 9.0 | 0.00 | 0.02 | 0.02 | 91 | 1006.3 |
| 20260509181622 | 50 | 105 | 4.0 | 9.0 | 0.00 | 0.02 | 0.02 | 92 | 1006.4 |
| 20260509180611 | 50 | 103 | 4.0 | 9.0 | 0.00 | 0.02 | 0.02 | 92 | 1006.4 |
| 20260509175633 | 50 | 131 | 2.0 | 6.0 | 0.00 | 0.02 | 0.02 | 93 | 1006.5 |
| 20260509174648 | 49 | 140 | 3.0 | 6.0 | 0.00 | 0.02 | 0.02 | 92 | 1006.6 |
| 20260509173628 | 49 | 67 | 2.0 | 8.0 | 0.00 | 0.01 | 0.02 | 92 | 1006.6 |
| 20260509172553 | 49 | 89 | 2.0 | 8.0 | 0.00 | 0.01 | 0.01 | 91 | 1006.7 |
| 20260509170355 | 50 | 58 | 3.0 | 6.0 | 0.00 | 0.00 | 0.01 | 89 | 1006.9 |
| 20260509164209 | 50 | 86 | 2.0 | 7.0 | 0.00 | 0.00 | 0.00 | 88 | 1007.1 |
| 20260509163150 | 50 | 140 | 3.0 | 9.0 | 0.00 | 0.00 | 0.00 | 88 | 1007.3 |
| 20260509162200 | 50 | 105 | 4.0 | 9.0 | 0.00 | 0.00 | 0.00 | 87 | 1007.3 |
| 20260509161218 | 50 | 113 | 3.0 | 8.0 | 0.00 | 0.00 | 0.00 | 87 | 1007.5 |
| 20260509160157 | 50 | 79 | 4.0 | 9.0 | 0.00 | 0.00 | 0.00 | 87 | 1007.5 |
| 20260509155142 | 50 | 105 | 3.0 | 9.0 | 0.00 | 0.00 | 0.00 | 87 | 1007.7 |
| 20260509153031 | 50 | 124 | 5.0 | 10.0 | 0.00 | 0.00 | 0.00 | 86 | 1008.0 |
| 20260509152011 | 49 | 133 | 4.0 | 10.0 | 0.00 | 0.00 | 0.00 | 86 | 1008.0 |
| 20260509151029 | 49 | 126 | 3.0 | 7.0 | 0.00 | 0.00 | 0.00 | 86 | 1008.3 |
| 20260509150030 | 49 | 98 | 2.0 | 12.0 | 0.00 | 0.00 | 0.00 | 86 | 1008.3 |
| 20260509145054 | 49 | 117 | 5.0 | 12.0 | 0.00 | 0.00 | 0.00 | 85 | 1008.2 |
| 20260509142908 | 49 | 115 | 5.0 | 11.0 | 0.00 | 0.00 | 0.00 | 84 | 1008.4 |
| 20260509141933 | 49 | 110 | 4.0 | 10.0 | 0.00 | 0.00 | 0.00 | 83 | 1008.4 |
| 20260509140950 | 49 | 130 | 5.0 | 10.0 | 0.00 | 0.00 | 0.00 | 84 | 1008.3 |
| 20260509135937 | 48 | 130 | 3.0 | 9.0 | 0.00 | 0.00 | 0.00 | 84 | 1008.4 |
| 20260509134910 | 48 | 138 | 4.0 | 8.0 | 0.00 | 0.00 | 0.00 | 84 | 1008.6 |
| 20260509133918 | 48 | 108 | 3.0 | 7.0 | 0.00 | 0.00 | 0.00 | 81 | 1008.5 |
| 20260509132935 | 47 | 132 | 2.0 | 9.0 | 0.00 | 0.00 | 0.00 | 80 | 1008.5 |
| 20260509131915 | 47 | 103 | 3.0 | 9.0 | 0.00 | 0.00 | 0.00 | 79 | 1008.6 |
| 20260509130857 | 46 | 72 | 3.0 | 7.0 | 0.00 | 0.00 | 0.00 | 79 | 1008.5 |
| 20260509125848 | 46 | 105 | 2.0 | 6.0 | 0.00 | 0.00 | 0.00 | 79 | 1008.6 |
| 20260509124830 | 45 | 96 | 3.0 | 6.0 | 0.00 | 0.00 | 0.00 | 78 | 1008.6 |
| 20260509123757 | 45 | 102 | 3.0 | 6.0 | 0.00 | 0.00 | 0.00 | 77 | 1008.7 |
| 20260509122753 | 45 | 131 | 3.0 | 6.0 | 0.00 | 0.00 | 0.00 | 78 | 1008.8 |
| 20260509121722 | 44 | 121 | 2.0 | 5.0 | 0.00 | 0.00 | 0.00 | 79 | 1008.9 |
| 20260509120735 | 44 | 122 | 2.0 | 4.0 | 0.00 | 0.00 | 0.00 | 81 | 1009.0 |
| 20260509115719 | 42 | 108 | 1.0 | 4.0 | 0.00 | 0.00 | 0.00 | 83 | 1009.0 |
| 20260509113554 | 41 | 102 | 1.0 | 3.0 | 0.00 | 0.00 | 0.00 | 84 | 1008.9 |
| 20260509112554 | 40 | 84 | 1.0 | 3.0 | 0.00 | 0.00 | 0.00 | 85 | 1009.0 |
| 20260509111548 | 39 | 58 | 1.0 | 3.0 | 0.00 | 0.00 | 0.00 | 87 | 1009.2 |
| 20260509110519 | 38 | 72 | 1.0 | 3.0 | 0.00 | 0.00 | 0.00 | 87 | 1009.1 |
| 20260509103300 | 36 | 115 | 1.0 | 4.0 | 0.00 | 0.00 | 0.00 | 90 | 1009.1 |
| 20260509102245 | 35 | 74 | 0.0 | 1.0 | 0.00 | 0.00 | 0.00 | 90 | 1009.1 |
| 20260509101227 | 35 | 53 | 0.0 | 2.0 | 0.00 | 0.00 | 0.00 | 90 | 1009.0 |
| 20260509100201 | 34 | 46 | 1.0 | 3.0 | 0.00 | 0.00 | 0.00 | 90 | 1008.9 |
| 20260509095156 | 34 | 35 | 1.0 | 3.0 | 0.00 | 0.00 | 0.00 | 91 | 1008.7 |
| 20260509094142 | 34 | 63 | 1.0 | 2.0 | 0.00 | 0.00 | 0.00 | 91 | 1008.8 |
| 20260509093112 | 34 | 46 | 0.0 | 2.0 | 0.00 | 0.01 | 0.00 | 91 | 1008.9 |
| 20260509092115 | 33 | 108 | 1.0 | 2.0 | 0.00 | 0.01 | 0.00 | 91 | 1008.9 |
| 20260509091122 | 33 | 76 | 0.0 | 2.0 | 0.00 | 0.01 | 0.00 | 91 | 1009.1 |
| 20260509090059 | 33 | 129 | 1.0 | 2.0 | 0.00 | 0.01 | 0.00 | 91 | 1009.2 |
| 20260509085118 | 33 | 89 | 1.0 | 2.0 | 0.00 | 0.01 | 0.00 | 91 | 1009.3 |
| 20260509084055 | 33 | 100 | 0.0 | 2.0 | 0.00 | 0.01 | 0.00 | 91 | 1009.3 |
| 20260509083104 | 33 | 39 | 1.0 | 1.0 | 0.00 | 0.01 | 0.00 | 91 | 1009.3 |
| 20260509082036 | 33 | 122 | 0.0 | 1.0 | 0.00 | 0.01 | 0.00 | 91 | 1009.4 |
| 20260509081054 | 34 | 39 | 0.0 | 2.0 | 0.00 | 0.01 | 0.00 | 90 | 1009.3 |
| 20260509080040 | 34 | 89 | 0.0 | 3.0 | 0.00 | 0.01 | 0.00 | 90 | 1009.4 |
| 20260509075101 | 34 | 56 | 0.0 | 3.0 | 0.00 | 0.01 | 0.00 | 89 | 1009.4 |
| 20260509074039 | 34 | 178 | 0.0 | 2.0 | 0.00 | 0.01 | 0.00 | 90 | 1009.5 |
| 20260509073048 | 34 | 46 | 0.0 | 2.0 | 0.00 | 0.01 | 0.00 | 89 | 1009.4 |
| 20260509072028 | 35 | 51 | 1.0 | 2.0 | 0.00 | 0.01 | 0.00 | 89 | 1009.3 |
| 20260509065901 | 35 | 53 | 0.0 | 2.0 | 0.00 | 0.02 | 0.00 | 89 | 1009.6 |
| 20260509064856 | 35 | 89 | 0.0 | 1.0 | 0.00 | 0.02 | 0.00 | 89 | 1009.5 |
| 20260509063855 | 35 | 140 | 0.0 | 1.0 | 0.00 | 0.02 | 0.00 | 89 | 1009.5 |
| 20260509062913 | 36 | 140 | 0.0 | 2.0 | 0.00 | 0.02 | 0.00 | 89 | 1009.6 |
| 20260509061930 | 36 | 28 | 0.0 | 2.0 | 0.00 | 0.02 | 0.00 | 89 | 1009.7 |
| 20260509054634 | 36 | 152 | 1.0 | 2.0 | 0.00 | 0.02 | 0.00 | 89 | 1010.2 |
| 20260509053645 | 36 | 89 | 1.0 | 2.0 | 0.00 | 0.02 | 0.00 | 89 | 1010.2 |
| 20260509052700 | 36 | 41 | 0.0 | 2.0 | 0.00 | 0.02 | 0.00 | 89 | 1010.4 |
| 20260509045401 | 36 | 135 | 0.0 | 1.0 | 0.00 | 0.02 | 0.00 | 89 | 1010.5 |
| 20260509044421 | 35 | 15 | 0.0 | 2.0 | 0.00 | 0.02 | 0.00 | 88 | 1010.5 |
| 20260509043402 | 36 | 79 | 0.0 | 2.0 | 0.00 | 0.02 | 0.00 | 87 | 1010.6 |
| 20260509042345 | 36 | 89 | 0.0 | 1.0 | 0.00 | 0.02 | 0.00 | 87 | 1010.7 |
| 20260509041327 | 36 | 28 | 0.0 | 2.0 | 0.00 | 0.02 | 0.00 | 86 | 1010.6 |
| 20260509040325 | 37 | 68 | 0.0 | 2.0 | 0.00 | 0.02 | 0.00 | 86 | 1010.5 |
| 20260509035349 | 37 | 53 | 0.0 | 2.0 | 0.00 | 0.02 | 0.02 | 85 | 1010.3 |
| 20260509034351 | 37 | 37 | 0.0 | 1.0 | 0.00 | 0.02 | 0.02 | 85 | 1010.3 |
| 20260509033401 | 38 | 46 | 0.0 | 1.0 | 0.00 | 0.02 | 0.02 | 84 | 1010.3 |
| 20260509032344 | 38 | 68 | 1.0 | 2.0 | 0.00 | 0.02 | 0.02 | 85 | 1010.4 |
| 20260509030214 | 38 | 107 | 2.0 | 6.0 | 0.00 | 0.02 | 0.02 | 86 | 1010.4 |
| 20260509025210 | 38 | 1 | 0.0 | 3.0 | 0.00 | 0.02 | 0.02 | 84 | 1010.3 |
| 20260509024212 | 38 | 1 | 0.0 | 3.0 | 0.00 | 0.02 | 0.02 | 83 | 1010.5 |
| 20260509023151 | 39 | 15 | 0.0 | 2.0 | 0.00 | 0.02 | 0.02 | 82 | 1010.4 |
| 20260509022124 | 39 | 28 | 0.0 | 2.0 | 0.00 | 0.02 | 0.02 | 82 | 1010.4 |
| 20260509021146 | 40 | 108 | 0.0 | 1.0 | 0.00 | 0.02 | 0.02 | 81 | 1010.4 |
| 20260509020207 | 40 | 46 | 0.0 | 1.0 | 0.00 | 0.02 | 0.02 | 80 | 1010.3 |
| 20260509015134 | 41 | 35 | 0.0 | 0.0 | 0.00 | 0.02 | 0.02 | 78 | 1010.2 |
| 20260509014151 | 42 | 46 | 0.0 | 1.0 | 0.00 | 0.02 | 0.02 | 77 | 1010.1 |
| 20260509013141 | 42 | 46 | 0.0 | 1.0 | 0.00 | 0.02 | 0.02 | 75 | 1010.0 |
| 20260509012147 | 43 | 20 | 0.0 | 0.0 | 0.00 | 0.02 | 0.02 | 73 | 1009.8 |
| 20260509011210 | 44 | 46 | 0.0 | 0.0 | 0.00 | 0.02 | 0.02 | 71 | 1009.7 |
| 20260509010204 | 45 | 35 | 0.0 | 0.0 | 0.00 | 0.02 | 0.02 | 69 | 1009.6 |
| 20260509004037 | 47 | 28 | 0.0 | 0.0 | 0.00 | 0.02 | 0.02 | 64 | 1009.3 |
| 20260509003012 | 48 | 46 | 0.0 | 0.0 | 0.00 | 0.02 | 0.02 | 63 | 1009.1 |
| 20260509001948 | 49 | 206 | 0.0 | 1.0 | 0.00 | 0.02 | 0.02 | 61 | 1009.1 |
| 20260509000922 | 50 | 314 | 0.0 | 0.0 | 0.00 | 0.02 | 0.02 | 57 | 1009.0 |
| 20260508235859 | 51 | 241 | 0.0 | 2.0 | 0.00 | 0.02 | 0.02 | 56 | 1009.1 |
| 20260508234901 | 51 | 269 | 1.0 | 4.0 | 0.00 | 0.02 | 0.02 | 54 | 1009.0 |
| 20260508233856 | 52 | 269 | 2.0 | 6.0 | 0.00 | 0.02 | 0.02 | 52 | 1008.9 |
| 20260508232827 | 53 | 201 | 3.0 | 7.0 | 0.00 | 0.02 | 0.02 | 51 | 1008.8 |
| 20260508230701 | 54 | 236 | 3.0 | 8.0 | 0.00 | 0.02 | 0.02 | 50 | 1008.8 |
| 20260508225726 | 54 | 283 | 3.0 | 10.0 | 0.00 | 0.02 | 0.02 | 50 | 1008.8 |
| 20260508224745 | 54 | 257 | 4.0 | 10.0 | 0.00 | 0.02 | 0.02 | 49 | 1009.0 |